sat.trackr.live / text

‹ back to catalog

STARLINK-35353

NORAD 65669 · 2025-211T

PAYLOAD ACTIVE UNKNOWN

§ Identity

Operator
Country
US
Launch date
2025-09-19
Launch site
AFWTR
Launch vehicle
Mass (kg)
RCS (m²)

Purposes: comms

External: N2YO · Heavens-Above · Gunter

§ Orbital elements

Epoch: 2026-05-25T02:31:17.592672Z

Period
95.64 min
Inclination
97.4456°
Eccentricity
0.0002546
Mean motion
15.05661635 rev/d
Perigee alt
547.7 km
Apogee alt
551.2 km
Semi-major
6,927.6 km
B*
2.0991e-4
RAAN
189.0753°
Arg perigee
110.5314°
Mean anomaly
249.6187°
Rev number
3,854

§ Raw data

STARLINK-353531 65669U 25211T   26145.10506473  .00002972  00000+0  20991-3 0  99902 65669  97.4456 189.0753 0002546 110.5314 249.6187 15.05661635 38549

JSON: /api/v1/satellites/65669 · /tle

For live sub-satellite position, see the globe view (requires WebGL).

§ Visibility from observer

Set your observer location to see the next 7 days of passes ≥ 10°. The values pass through the URL so the page stays shareable.

No JS? Fill the form by hand. The geolocation button needs JavaScript.